Volver al catálogo

SL-14 R/B

ActivoPO
NORAD 16194·ROCKET BODY·🇷🇺 Russia

Lanzado Oct 24, 1985 desde Plesetsk Cosmodrome

Loading…

Próximos Pases (próximas 24 horas)

TLE

ActualizadoSource: Space-Track

Época: Sep 14, 2026, 13:57 UTC

1 16194U 85100B   26257.58175199  .00000023  00000-0  34209-4 0  9999
2 16194  82.6026 200.1689 0015660 299.9160 234.1004 13.06838600949851

Sigue SL-14 R/B en tiempo real con AllMySat

Download on the App Store